Torna al catalogo

BREEZE-M R/B

AttivoMEO
NORAD 26738·ROCKET BODY·🇷🇺 Russia

Lanciato Apr 7, 2001 da Baikonur Cosmodrome

Loading…

Prossimi Passaggi (prossime 24 ore)

TLE

AggiornatoSource: Space-Track

Epoca: Sep 14, 2026, 03:26 UTC

1 26738U 01014C   26257.14360372 -.00000324  00000-0  00000-0 0  9990
2 26738  15.3345  13.5377 0179960 237.2514 133.6209  0.97965842 91038

Traccia BREEZE-M R/B in tempo reale con AllMySat

Download on the App Store